Elwood, MO

11:42 PM CST on February 11, 2016 (GMT -0600)
Rosecrans Memorial

Weather History for KSTJ - October, 2010

Change the Weather History Date:

Tuesday, October 5, 2010

  Actual Average Record
Temperature  
Mean Temperature 55 °F 59 °F  
Max Temperature 73 °F 72 °F 96 °F (1963)
Min Temperature 36 °F 46 °F 28 °F (2012)
Degree Days  
Heating Degree Days 10 8  
Month to date heating degree days 55 35  
Since 1 July heating degree days 95 115  
Cooling Degree Days 0 2  
Month to date cooling degree days 0 10  
Year to date cooling degree days 1453 1209  
Growing Degree Days 4 (Base 50)    
Moisture  
Dew Point 41 °F    
Average Humidity 62    
Maximum Humidity 92    
Minimum Humidity 31    
Precipitation  
Precipitation 0.00 in 0.09 in 1.86 in (1967)
Month to date precipitation 0.00 0.45  
Year to date precipitation 37.31 30.17  
Snow  
Snow 0.00 in - - ()
Month to date snowfall 0.0  
Snow Depth 0.00 in    
Sea Level Pressure  
Sea Level Pressure 30.33 in    
Wind  
Wind Speed 3 mph (South)    
Max Wind Speed 13 mph    
Max Gust Speed 18 mph    
Visibility 10 miles    
Events      
T = Trace of Precipitation, MM = Missing Value Source: NWS Daily Summary

Daily Weather History Graph

Daily Weather History Graph

Search for Another Location

Airport or City:

Trip Planner

Search our weather history database for the weather conditions in past years. The results will help you decide how hot, cold, wet, or windy it might be!

Date:

Astronomy

Oct. 05, 2010 Rise Set
Actual Time 7:19 AM CDT 6:55 PM CDT
Civil Twilight 6:52 AM CDT 7:22 PM CDT
Nautical Twilight 6:21 AM CDT 7:53 PM CDT
Astronomical Twilight 5:50 AM CDT 8:25 PM CDT
Moon 4:43 AM CDT (10/5) 5:26 PM CDT (10/5)
Length of Visible Light 12h 29m
Length of Day
11h 35m
Waning Crescent, 6% of the Moon is Illuminated
Oct 5
Waning Crescent
Oct 7
New
Oct 14
First Quarter
Oct 22
Full
Oct 30
Last Quarter

Hourly Weather History & Observations

Time (CDT) Temp. Windchill Dew Point Humidity Pressure Visibility Wind Dir Wind Speed Gust Speed Precip Events Conditions
12:53 AM 46.0 °F 44.8 °F 39.0 °F 76% 30.32 in 10.0 mi SSW 3.5 mph - N/A   Clear
1:53 AM 43.0 °F - 37.9 °F 82% 30.33 in 10.0 mi Calm Calm - N/A   Clear
2:53 AM 37.9 °F - 35.1 °F 89% 30.34 in 10.0 mi Calm Calm - N/A   Clear
3:53 AM 37.9 °F - 35.1 °F 89% 30.34 in 10.0 mi Calm Calm - N/A   Clear
4:53 AM 37.9 °F - 35.1 °F 89% 30.34 in 10.0 mi Calm Calm - N/A   Clear
5:53 AM 37.0 °F - 34.0 °F 89% 30.35 in 7.0 mi Calm Calm - N/A   Clear
6:53 AM 37.0 °F - 34.0 °F 89% 30.36 in 9.0 mi Calm Calm - N/A   Clear
7:53 AM 43.0 °F 41.3 °F 37.9 °F 82% 30.37 in 10.0 mi South 3.5 mph - N/A   Clear
8:53 AM 50.0 °F - 43.0 °F 77% 30.38 in 10.0 mi Calm Calm - N/A   Clear
9:53 AM 57.0 °F - 42.1 °F 57% 30.40 in 10.0 mi SSW 4.6 mph - N/A   Clear
10:53 AM 64.0 °F - 41.0 °F 43% 30.39 in - North - - N/A   Clear
11:53 AM 68.0 °F - 41.0 °F 37% 30.38 in - South 9.2 mph - N/A   Clear
12:53 PM 69.1 °F - 42.1 °F 38% 30.35 in 10.0 mi South 9.2 mph - N/A   Unknown
1:53 PM 71.1 °F - 41.0 °F 34% 30.33 in 10.0 mi SSW 9.2 mph - N/A   Clear
2:53 PM 72.0 °F - 41.0 °F 33% 30.30 in 10.0 mi South 9.2 mph - N/A   Clear
3:53 PM 72.0 °F - 42.1 °F 34% 30.29 in 10.0 mi South 9.2 mph - N/A   Clear
4:53 PM 72.0 °F - 39.9 °F 31% 30.28 in 10.0 mi SSW 10.4 mph - N/A   Clear
5:53 PM 70.0 °F - 42.1 °F 36% 30.27 in 10.0 mi South 9.2 mph - N/A   Clear
6:53 PM 61.0 °F - 44.1 °F 54% 30.28 in 10.0 mi SSE 4.6 mph - N/A   Clear
7:53 PM 57.9 °F - 44.1 °F 60% 30.28 in 10.0 mi Calm Calm - N/A   Clear
8:53 PM 52.0 °F - 46.0 °F 80% 30.29 in 10.0 mi Calm Calm - N/A   Clear
9:53 PM 48.0 °F - 45.0 °F 89% 30.29 in 10.0 mi Calm Calm - N/A   Clear
10:53 PM 50.0 °F - 46.9 °F 89% 30.29 in 10.0 mi Calm Calm - N/A   Clear
11:53 PM 46.9 °F - 43.0 °F 86% 30.29 in 10.0 mi Calm Calm - N/A   Partly Cloudy